Regional Weather Roundup
Issued by NWS

Home | Current Version | Previous Version | Graphics & Text | Print | Product List | Glossary On
Versions: 1 2 3 4 5 6 7 8 9 10 11 12 13 14 15 16 17 18 19 20 21 22 23 24 25 26 27 28 29 30 31 32 33 34 35 36 37 38 39 40 41 42 43 44 45 46 47 48 49 50
000
ASUS45 KCYS 042010
RWRWY

WYOMING REGIONAL WEATHER ROUNDUP
NATIONAL WEATHER SERVICE CHEYENNE WY
100 PM MST SUN DEC 04 2016

NOTE:  "FAIR" INDICATES FEW OR NO CLOUDS BELOW 12,000 FEET
WITH NO SIGNIFICANT WEATHER AND/OR OBSTRUCTIONS TO VISIBILITY.

WYZ001-042100-
YELLOWSTONE NATIONAL PARK

CITY           SKY/WX    TMP DP  RH WIND       PRES   REMARKS
LK YELLOWSTONE   N/A     21  18  88 W12G24    29.73F WCI   9
W YELLOWSTONE  NOT AVBL

$$
WYZ002>013-054>058-071-098>099-042100-
NORTHERN WYOMING

CITY           SKY/WX    TMP DP  RH WIND       PRES   REMARKS
JACKSON        CLOUDY    27  27 100 S17G26    29.81F WCI  14
CODY           CLOUDY    39  23  52 W6        29.68  WCI  35
GREYBULL       FAIR      37  16  42 W5        29.70F WCI  33
WORLAND        FAIR      41  18  39 SW3       29.67F
SHERIDAN       CLOUDY    41  18  39 SE8       29.67F
BUFFALO        FAIR      42  15  33 E7        29.67F
GILLETTE       FAIR      41  15  35 SW14      29.69F
HULETT         FAIR      37  18  44 SW12      29.71F WCI  30
NEWCASTLE      FAIR      36  16  44 SE5       29.76F WCI  32

$$
WYZ014>020-022>026-101>103-042100-
CENTRAL WYOMING

CITY           SKY/WX    TMP DP  RH WIND       PRES   REMARKS
BIG PINEY      FAIR      32  20  61 SE3       29.88F
PINEDALE       CLOUDY    27  21  80 MISG      29.91F
DUBOIS         LGT SNOW  30  19  64 NW15G31   29.71F WCI  19
LANDER         FAIR      36  15  42 VRB3      29.72F
RIVERTON       FAIR      39  16  39 CALM      29.73F
CASPER         FLURRIES  39  17  41 SW36G46   29.73F WCI  26
DOUGLAS        FAIR      41  18  39 SW13      29.75F

$$
WYZ021-027>030-104>119-042100-
SOUTHERN WYOMING

CITY           SKY/WX    TMP DP  RH WIND       PRES   REMARKS
EVANSTON       FAIR      34  12  40 SW20      29.98F WCI  23
KEMMERER         N/A     34  18  51 W18G24    29.94F WCI  23
FORT BRIDGER   PTCLDY    39  14  35 W17G25    29.97F WCI  30
ROCK SPRINGS   PTSUNNY   34  14  43 W20       29.94F WCI  23
DIXON          CLOUDY    32  14  47 SW21G26   30.03F WCI  20
RAWLINS        FAIR      31  14  49 W25G40    29.88F WCI  17
SARATOGA       CLOUDY    34  19  55 SW18G31   29.92F WCI  23
LARAMIE        CLOUDY    37  14  38 W28G35    29.87F WCI  25
CHEYENNE       FAIR      43  14  31 W17G26    29.85F
TORRINGTON     FAIR      44  13  28 W20G25    29.80F
PINE BLUFFS    FAIR      43   5  21 S18G24    29.85F

$$



USA.gov is the U.S. government's official web portal to all federal, state and local government web resources and services.